Regional Weather Roundup
Issued by NWS

Home | Current Version | Previous Version | Text Only | Print | Product List | Glossary Off
Versions: 1 2 3 4 5 6 7 8 9 10 11 12 13 14 15 16 17 18 19 20 21 22 23 24 25 26 27 28 29 30 31 32 33 34 35 36 37 38 39 40 41 42 43 44 45 46 47 48 49 50

000
ASUS44 KMEG 260610
RWRTN
TENNESSEE HOURLY STATE WEATHER ROUNDUP
NATIONAL WEATHER SERVICE MEMPHIS TN
100 AM CDT SUN MAR 26 2017

TNZ002-004-019-021-049-052-054-088>092-260700-
WEST TENNESSEE

CITY           SKY/WX    TMP DP  RH WIND       PRES   REMARKS
MEMPHIS INTL   MOCLDY    58  58 100 S7        29.93R
NWS MEMPHIS      N/A     60 N/A N/A MISG        N/A
JACKSON        CLOUDY    59  57  93 SW5       29.94F
DYERSBURG      CLOUDY    58  56  93 S6        29.93S
SOMERVILLE     MOCLDY    59  57  94 S8        29.92S
BOLIVAR        CLOUDY    57  55  94 S7        29.94S
PARIS          CLOUDY    57  54  88 SW7       29.95R
HUNTINGDON     CLOUDY    59  55  88 W8        29.94R
SAVANNAH       CLOUDY    57  57 100 S3        29.97R
$$

TNZ008-025-027-028-033-062-065-066-260700-
NORTH MIDDLE TENNESSEE

CITY           SKY/WX    TMP DP  RH WIND       PRES   REMARKS
NASHVILLE      LGT RAIN  58  56  93 SE3       29.99R
PORTLAND       CLOUDY    57  55  94 S12       29.99S
CLARKSVILLE    CLOUDY    60  55  83 S8        29.95F
SMYRNA         LGT RAIN  58  56  93 SE6       30.01F
COOKEVILLE     MOCLDY    57  55  94 S8G14     30.03F FOG
GALLATIN       CLOUDY    59  57  94 CALM      30.02S FOG
CROSSVILLE     LGT RAIN  56  54  93 CALM      30.06F
$$

TNZ061-075-076-078-094-096-097-260700-
SOUTH MIDDLE TENNESSEE

CITY           SKY/WX    TMP DP  RH WIND       PRES   REMARKS
FAYETTEVILLE   CLOUDY    57  57 100 SE8       30.01F
TULLAHOMA      CLOUDY    55  55 100 SE6       30.02F
WINCHESTER     MOCLDY    55  55 100 SE6       30.03S
MCMINNVILLE    CLOUDY    57  57 100 CALM      30.02F
COLUMBIA       CLOUDY   N/A N/A N/A CALM      29.96F
SHELBYVILLE    MOCLDY   N/A N/A N/A MISG      30.00F
$$

TNZ017-018-042-046-047-260700-
NORTHEAST TENNESSEE

CITY           SKY/WX    TMP DP  RH WIND       PRES   REMARKS
TRI CITIES     CLOUDY    60  46  59 CALM      30.12F
ELIZABETHTON   CLOUDY    52  46  82 CALM      30.12F
$$

TNZ012-013-036-069-073-074-260700-
CENTRAL EAST TENNESSEE

CITY           SKY/WX    TMP DP  RH WIND       PRES   REMARKS
KNOXVILLE      CLOUDY    68  47  46 SE14G24   30.03F
OAK RIDGE      PTCLDY    63  49  60 CALM      30.05F
DOWNTOWN KNOXV CLEAR     57  52  82 CALM      30.04F
GATLINBURG     CLEAR     59  46  63 CALM      30.05F
MORRISTOWN     PTCLDY    59  48  67 CALM      30.06F
JACKSBORO      CLOUDY    59  50  72 CALM      30.08F
$$

TNZ083-085-099-260700-
SOUTHEAST TENNESSEE

CITY           SKY/WX    TMP DP  RH WIND       PRES   REMARKS
CHATTANOOGA    HVY RAIN  60  60 100 SE3       30.06F
$$

SKY/WX REPORTED AS FAIR MEANS FEW OR NO CLOUDS BELOW
12 THOUSAND FEET.




USA.gov is the U.S. government's official web portal to all federal, state and local government web resources and services.